Regional Weather Roundup
Issued by NWS

Home | Current Version | Previous Version | Graphics & Text | Print | Product List | Glossary On
Versions: 1 2 3 4 5 6 7 8 9 10 11 12 13 14 15 16 17 18 19 20 21 22 23 24 25 26 27 28 29 30 31 32 33 34 35 36 37 38 39 40 41 42 43 44 45 46 47 48 49 50
000
ASUS45 KBOU 280007
RWRCO

WEATHER ROUNDUP FOR COLORADO
NATIONAL WEATHER SERVICE DENVER/BOULDER CO
600 PM MDT WED APR 27 2016

NOTE: "FAIR" INDICATES FEW OR NO CLOUDS BELOW 12000 FEET WITH NO
SIGNIFICANT WEATHER AND/OR OBSTRUCTIONS TO VISIBILITY.

COZ001>005-013-030-031-280100-
...NORTHWEST COLORADO...

CITY           SKY/WX    TMP DP  RH WIND       PRES   REMARKS
CRAIG          PTSUNNY   47  33  58 CALM      29.81F
HAYDEN         CLOUDY    43  32  65 S10       29.83S
MEEKER         LGT RAIN  46  35  65 W21G26    29.81R
MOUNT WERNER   NOT AVBL
STEAMBOAT SPGS CLOUDY    44  31  61 SE6       29.82F
WALDEN         FAIR      36  28  75 N10       29.86S
$$

COZ006>008-011-280100-
...WEST CENTRAL VALLEYS...

CITY           SKY/WX    TMP DP  RH WIND       PRES   REMARKS
GRAND JUNCTION FAIR      57  36  45 S7        29.75S
MONTROSE       PTSUNNY   55  30  38 N7        29.80S
EAGLE          MOSUNNY   54  23  30 SW12      29.80F
RIFLE          FAIR      55  33  43 NW5       29.78F
DELTA          NOT AVBL
NUCLA          NOT AVBL
$$

COZ017>023-064>068-280100-
...SOUTHWEST COLORADO...

CITY           SKY/WX    TMP DP  RH WIND       PRES   REMARKS
DURANGO        CLOUDY    54  24  31 W10       29.80S
CORTEZ         CLOUDY    58  25  28 MISG      29.78S
PAGOSA SPRINGS CLOUDY    52  18  26 SW7G17    29.84R
TELLURIDE      LGT SNOW  36  32  85 CALM      29.91R
WOLF CREEK PAS NOT AVBL
$$

COZ009-010-012-014-032>034-037-058>063-280100-
...CENTRAL COLORADO...

CITY           SKY/WX    TMP DP  RH WIND       PRES   REMARKS
ASPEN          PTSUNNY   40  33  76 S12       29.84S
BUENA VISTA    PTSUNNY   49  18  28 NW6       29.80S
COPPER MTN     NOT AVBL
BERTHOUD PASS  CLOUDY    19   9  63 MISG      29.91S
COTTONWOOD PAS CLOUDY    45  12  26 SW15G22   29.87R
GUNNISON       FAIR      50  21  32 SW10      29.83S
KREMMLING      PTSUNNY   46  23  39 NW8       29.84S
LEADVILLE      FAIR      36  23  59 NW12      29.87S
MONARCH PASS   FAIR      30  19  64 W24G32    30.02R WCI  16
SALIDA         FAIR      56  15  20 N9        29.85F
SUNLIGHT       PTSUNNY   34  32  93 CALM      29.94S
WILKERSON PASS FAIR      34  10  37 W8        29.93R WCI  27
$$

COZ069>075-280100-
...SAN LUIS VALLEY/SANGRE DE CRISTO MOUNTAINS...

CITY           SKY/WX    TMP DP  RH WIND       PRES   REMARKS
ALAMOSA        CLOUDY    57  18  21 S8G17     29.76S
LA VETA PASS   CLOUDY    43  19  39 SE7       29.90R
SAGUACHE       CLOUDY    50  23  34 SW16      29.79F
$$

COZ035-036-038>040-280100-
...NORTHERN COLORADO FRONT RANGE...

CITY           SKY/WX    TMP DP  RH WIND       PRES   REMARKS
DENVER INTL AP FAIR      51  29  42 NE9       29.79R
DMNS CITY PARK   N/A     53  29  40 E15       29.77S
AURORA         FAIR      52  31  43 E10       29.79R
FRONT RANGE AP NOT AVBL
ERIE MUNI ARPT FAIR      55  31  41 E6        29.78R
BOULDER MUN AP FAIR      54  32  43 E5        29.77R
CENTENNIAL     FAIR      52  30  43 E6        29.78R
BROOMFIELD     PTSUNNY   54  30  40 NE13      29.78S
FORT COLLINS   FAIR      52  30  43 NW3       29.79S
LONGMONT       FAIR      55  33  43 E6        29.79S
$$

COZ041-046-047-076>085-087-088-280100-
...PIKES PEAK/PALMER DIVIDE AND SOUTHERN FOOTHILLS...

CITY           SKY/WX    TMP DP  RH WIND       PRES   REMARKS
COLO. SPRINGS  PTSUNNY   49  30  48 NE8       29.80R
A. F. ACADEMY  PTSUNNY   48  32  53 E14G22    29.79R
SCHRIEVER AFB  NOT AVBL
ELLICOTT       NOT AVBL
FALCON         LGT RAIN  44  33  64 SE6       29.84R
FORT CARSON    PTSUNNY   53  30  42 NE9       29.77R
LIMON          FAIR      51  28  41 N14       29.80R
MONUMENT HILL  CLOUDY    41  32  70 SE8       29.83S
TRINIDAD       PTSUNNY   59  28  30 SE20G25   29.73S
$$

COZ042>045-048>051-090-091-280100-
...NORTHEAST COLORADO...

CITY           SKY/WX    TMP DP  RH WIND       PRES   REMARKS
GREELEY ARPT   FAIR      50  28  43 N22       29.79R
AKRON          FAIR      50  26  39 N23G32    29.78R
BURLINGTON     FAIR      56  27  32 NW21G26   29.77R
WRAY           NOT AVBL
STERLING       FAIR      52  32  46 N18G28    29.77R
HOLYOKE        NOT AVBL
FORT MORGAN    FAIR      50  24  36 N15G24    29.80R
$$

COZ086-089-092>099-280100-
...SOUTHEAST COLORADO...

CITY           SKY/WX    TMP DP  RH WIND       PRES   REMARKS
PUEBLO         FAIR      62  26  25 SE8       29.73S
LA JUNTA       FAIR      62  25  24 E8        29.74S
LAMAR          FAIR      65  27  23 N7        29.73R
SPRINGFIELD      N/A     59  27  29 VRB3      29.76S
$$



USA.gov is the U.S. government's official web portal to all federal, state and local government web resources and services.